ASTRA 1M

Last updated on Sun Apr 12 2026 00:02:51 GMT+0000 (Coordinated Universal Time)

1 33436U 08057A 26101.52450409 .00000123 00000+0 00000+0 0 9992 2 33436 0.1241 76.7948 0003396 1.2626 329.9109 1.00274992 45060
UTC large
Height (km)
Speed (km/s)
/
Latitude / Longitude
Inclination (degrees)
Orbital Period (minutes)
Azimuth
Elevation
Range (km)
Doppler Factor

Next 0 passes for location: London (51.5072 / 0.1276)

Sorry there are no passes over London.
ASTRA 1M